OBJECT E, 51828

Orbit data source: Space-Track

You're viewing an Uncataloged Satellite

Recently launched and/or uncataloged satellites may have evolving metadata. Metadata may include but not limited to: Owner, Maufacturer, Bus, Motor, and Mission.

OBJECT E, 51828 is a Chinese satellite in SSO that was launched on Sun, 27 Feb 2022 UTC via a CHANG ZHENG 8 launch vehicle from the Wenchang Satellite Launch Center (WSC). Unknown objects in Earth's orbit typically refer to objects detected orbiting the Earth but have not yet been identified or cataloged. These objects could be anything from previously untracked satellites, spent rocket stages, debris from satellite collisions, or even natural meteoroids temporarily captured by Earth's gravity.

Loading next visibility...
Identifier
51828, 2022-019E
Orbit
SSO
Country
Flag of CNCN / PRC
Related business
None
Manufacturer
Unknown
Mission
Civil Imaging
Bus & Motor
Unknown
Mass
Unknown
Launch date (UTC)
2022-02-27 (4 years ago)
Launch vehicle
CHANG ZHENG 8
Launch site
Wenchang Satellite Launch Center (WSC)
Object type
Unknown
Shape & HBR
Box + 2 Pan, 1.0 m
Radar Cross Section
1.775 m², Medium (>0.1 m² and < 1m²)

Expand to show TLE details & history
Last TLE update: 4 hours ago

TLE from 4 hours ago
0 OBJECT E
1 51828U 22019E   26095.53642565  .00030624  00000-0  44308-3 0  9993
2 51828  97.3761 190.1832 0006048  26.1868 333.9692 15.55840623228682
Epoch: 2026-04-05T12:52Z
TLE epoch observation values (Epoch: 2026-04-05T12:52:27.176Z)
Latitude
0.00007°
Longitude
163.22952°
Altitude
399.166 km
Speed
7.673 km/s
True Right ascension
12h 40m 43s
True Declination
0° 00' 00"
Sunlit
Object was in full shadow at epoch
Visualization orbit readout
Latitude
Unknown
Longitude
Unknown
Altitude
Unknown
Speed
Unknown
Apparent Right ascension
Unknown
Apparent Declination
Unknown
Sunlit
N/A
Visualization observer readout
Local Sidereal Time
23:16:54
Azimuth
Unknown
Elevation
Unknown
Doppler factor
Unknown
Orbital elements
Apogee altitude
400.724 km
Perigee altitude
392.53 km
Semi-major axis
6,774.764 km
Eccentricity
0.0006
Inclination
97.3761°
RAAN
190.1832°
Arg. of periapsis
26.1868°
True anomaly
333.93876°
Mean anomaly
333.9692°
Eccentric anomaly
333.95398°
Mean motion
3.89226 °/min
Orbital period
92.49 mins
BSTAR
0.00044308
Loading maneuver chart data...
Computing Atmospheric mass density...
Loading historical data...
Loading historical data...
Loading historical data...
Loading historical data...
Loading historical data...
Loading historical data...
Loading historical data...

Documentation

Showing up to 5 results
|